{"data":{"norad_id":54235,"epoch":"2026-05-25T04:52:17.255136Z","epoch_age_seconds":54751,"freshness":"FRESH","line1":"1 54235U 22151A   26145.20297749 -.00000008  00000+0  19281-4 0  9991","line2":"2 54235  98.8171 152.9397 0001686 133.2922 226.8391 14.13366304181691","mean_motion":14.13366304,"eccentricity":0.0001686,"inclination_deg":98.8171,"raan_deg":152.9397,"arg_perigee_deg":133.2922,"mean_anomaly_deg":226.8391,"bstar":1.9281e-5,"rev_number":18169,"period_min":101.88441566242,"perigee_km":846.65681859012,"apogee_km":849.09342987842,"semimajor_km":7226.0121242343,"source":"CELESTRAK","updated_at":"2026-05-25T13:37:58.663564Z"}}